[[{"header":{"parameterUnit":"m.s-1","parameterCategory":1,"la1":30.2991,"la2":30.254,"lo1":-89.0895,"lo2":-89.0444,"dy":0.0017,"dx":0.0017,"nx":28,"ny":28,"refTime":"2024-10-19T03:00:00:Z","depth":0,"parameterNumber":2,"parameterNumberName":"U-component_of_WINDS"},"data":[0,0,0,0,0,0,0,0,0,0,0,0,0,0,0,0,0,0,0,0,0,0,0,0,0,0,0,0,0,0,0,0,0,0,0,0,0,0,0,0,0,0,0,0,0,0,0,0,0,0,0,0,0,0,0,0,0,0,-4.2605,-4.2606,0,-4.2677,-4.2678,-4.2679,-4.2518,-4.2513,-4.2508,-4.2503,-4.2581,-4.2588,-4.2594,0,0,0,0,0,0,0,0,0,0,0,0,0,-4.2332,-4.2338,-4.2605,-4.2606,-4.2607,-4.2677,-4.2678,-4.2679,-4.2519,-4.2513,-4.2507,-4.2501,-4.2579,-4.2587,-4.2595,0,0,0,0,0,0,0,0,0,0,0,0,0,-4.2432,-4.2339,-4.2605,-4.2536,-4.253,-4.2677,-4.2678,-4.268,-4.2521,-4.2513,-4.2505,-4.2498,-4.2576,-4.2586,-4.2596,-4.2815,0,0,-4.2628,-4.2632,0,0,0,0,0,0,0,0,-4.2427,-4.2442,-4.2545,-4.2541,-4.2535,-4.2581,-4.261,-4.2725,-4.2523,-4.2524,-4.2503,-4.2494,-4.2587,-4.2596,-4.2627,-4.2819,-4.2822,-4.2629,-4.2635,-4.2639,-4.2642,0,0,0,0,0,0,0,-4.242,-4.2438,-4.2634,-4.2547,-4.2541,-4.2502,-4.2507,-4.2631,-4.2599,-4.2524,-4.2512,-4.2523,-4.2583,-4.2617,-4.2628,-4.2823,-4.2628,-4.2638,-4.2644,-4.2648,-4.3199,-4.3207,0,0,0,0,0,0,-4.2421,-4.2434,-4.2632,-4.2636,-4.246,-4.2513,-4.2519,-4.2574,-4.2597,-4.2593,-4.2529,-4.2515,-4.2604,-4.2616,-4.263,-4.2888,-4.2639,-4.2649,-4.2655,-4.319,-4.3201,-4.321,0,0,0,0,0,0,-4.2416,-4.244,-4.2629,-4.2532,-4.2553,-4.2526,-4.2589,-4.258,-4.2613,-4.2601,-4.2595,-4.257,-4.2598,-4.2615,-4.277,-4.2889,-4.2654,-4.2663,-4.318,-4.3193,-4.3205,-4.3408,0,0,0,0,0,0,-4.2409,-4.244,-4.2522,-4.2535,-4.2558,-4.2768,-4.2596,-4.2587,-4.2631,-4.2613,-4.2638,-4.2634,-4.2593,-4.2756,-4.278,-4.2899,-4.2671,-4.317,-4.3186,-4.3201,-4.339,-4.3426,-4.3456,0,0,0,0,0,-4.24,-4.2577,-4.2527,-4.2552,-4.2661,-4.2775,-4.2788,-4.2737,-4.2642,-4.2725,-4.2716,-4.2634,-4.2871,-4.2773,-4.2799,-4.2923,-4.3162,-4.3182,-4.32,-4.3375,-4.3419,-4.3455,0,0,0,0,0,0,-4.258,-4.2577,-4.2522,-4.2708,-4.2743,-4.2747,-4.2851,-4.2784,-4.2847,-4.2828,-4.2761,-4.2768,-4.2937,-4.2944,-4.2835,-4.3136,-4.3001,-4.3026,-4.3125,-4.3166,-4.3198,-4.3194,-4.268,0,0,0,0,0,-4.2641,-4.2733,-4.2726,-4.2891,-4.2911,-4.2879,-4.2926,-4.2883,-4.2917,-4.2931,-4.2934,-4.2971,-4.3053,-4.311,-4.3185,-4.3389,-4.3393,-4.3487,-4.352,-4.3547,-4.3571,-4.3681,-4.3723,-4.3272,-4.3272,-4.3271,0,0,-4.277,-4.2779,-4.2842,-4.2928,-4.2949,-4.3047,-4.2892,-4.3002,-4.3074,-4.2948,-4.3094,-4.3098,-4.3134,-4.3316,-4.3395,-4.3327,-4.3696,-4.3571,-4.3593,-4.3602,-4.3704,-4.3747,-4.3785,-4.3285,-4.3282,-4.328,0,0,-4.3053,-4.3069,-4.3209,-4.3233,-4.3268,-4.3244,-4.3278,-4.3293,-4.329,-4.3436,-4.3343,-4.3428,-4.3572,-4.3602,-4.3636,-4.3931,-4.3857,-4.3957,-4.413,-4.4237,-4.4273,-4.4304,-4.4411,-4.445,-4.398,-4.398,-4.3981,0,-4.3209,-4.3351,-4.3289,-4.3406,-4.3447,-4.3335,-4.3477,-4.3504,-4.3562,-4.3594,-4.3516,-4.3694,-4.3711,-4.3898,-4.397,-4.4,-4.4038,-4.3955,-4.4272,-4.4303,-4.4331,-4.4432,-4.4473,-4.3992,-4.3991,-4.399,-4.3988,0,-4.3541,-4.3642,-4.375,-4.3808,-4.3861,-4.399,-4.3949,-4.401,-4.3962,-4.3947,-4.4097,-4.4113,-4.419,-4.423,-4.4185,-4.4412,-4.4369,-4.4283,-4.4146,-4.4387,-4.4481,-4.4519,-4.401,-4.4005,-4.4002,-4.3999,0,0,-4.3943,-4.3964,-4.4005,-4.403,-4.4059,-4.4136,-4.426,-4.4333,-4.4388,-4.4431,-4.4535,-4.4658,-4.4579,-4.4618,-4.4575,-4.4669,-4.4903,-4.4572,-4.4571,-4.4635,-4.5156,-4.5222,-4.5267,-4.4853,-4.486,-4.4866,-4.5153,0,-4.4225,-4.4437,-4.4384,-4.4595,-4.4687,-4.4582,-4.469,-4.472,-4.4709,-4.4787,-4.4775,-4.4865,-4.4752,-4.4775,-4.4864,-4.4856,-4.5007,-4.4834,-4.4951,-4.4956,-4.4947,-4.5316,-4.5386,-4.5656,-4.5189,-4.5195,-4.52,0,-4.4583,-4.4639,-4.4859,-4.4873,-4.4909,-4.5007,-4.5071,-4.5146,-4.5178,-4.5164,-4.5207,-4.5145,-4.5268,-4.5128,-4.5298,-4.5182,-4.5226,-4.5229,-4.5238,-4.5249,-4.5094,-4.5339,-4.5741,-4.5783,-4.5257,-4.5252,-4.5248,0,-4.4857,-4.4987,-4.5135,-4.5159,-4.5179,-4.525,-4.5262,-4.5286,-4.5334,-4.539,-4.542,-4.549,-4.5529,-4.5585,-4.5544,-4.5446,-4.5722,-4.5578,-4.5715,-4.5716,-4.578,-4.5777,-4.6197,-4.5805,-4.5804,-4.5804,-4.5803,0,-4.5178,-4.5318,-4.5258,-4.535,-4.5503,-4.5441,-4.5594,-4.5593,-4.5616,-4.5706,-4.5619,-4.5706,-4.5645,-4.5727,-4.5695,-4.5842,-4.5859,-4.5853,-4.5843,-4.5862,-4.5863,-4.5892,-4.5873,-4.5814,-4.5812,-4.581,-4.5808,0,-4.5511,-4.5476,-4.5631,-4.5636,-4.5641,-4.5754,-4.5758,-4.5844,-4.5826,-4.5942,-4.5965,-4.5938,-4.603,-4.5993,-4.6092,-4.607,-4.6258,-4.6223,-4.6248,-4.6239,-4.6379,-4.6367,-4.6834,-4.6893,-4.6461,-4.6465,-4.6469,0,-4.572,-4.5824,-4.584,-4.5894,-4.5911,-4.5999,-4.6047,-4.599,-4.6044,-4.6088,-4.6169,-4.6253,-4.6317,-4.647,-4.6459,-4.6534,-4.6501,-4.6659,-4.6512,-4.6528,-4.6506,-4.6501,-4.6512,-4.669,-4.6695,-4.6699,-4.6702,0,-4.6095,-4.6072,-4.6144,-4.6211,-4.6271,-4.6321,-4.6363,-4.6412,-4.6357,-4.6423,-4.6515,-4.6565,-4.6664,-4.675,-4.6816,-4.6828,-4.6759,-4.6748,-4.6784,-4.6806,-4.6817,-4.6815,-4.6331,-4.6739,-4.6735,-4.6733,-4.6731,-4.6729,-4.6373,-4.6461,-4.6486,-4.6569,-4.6595,-4.6637,-4.6717,-4.6709,-4.6785,-4.686,-4.6822,-4.693,-4.6959,-4.7041,-4.7063,-4.7148,-4.7086,-4.7138,-4.7151,-4.7166,-4.7185,-4.6802,-4.7159,-4.7158,-4.7157,-4.7156,-4.7155,0,-4.6745,-4.6755,-4.6833,-4.6894,-4.696,-4.6885,-4.6928,-4.6989,-4.7085,-4.7117,-4.7182,-4.7289,-4.7371,-4.7367,-4.7443,-4.7511,-4.7481,-4.7533,-4.7529,-4.7534,-4.7235,-4.7197,-4.7557,-4.7557,-4.7557,-4.7557,-4.7557,-4.7556,-4.6947,-4.7092,-4.7073,-4.723,-4.7239,-4.7344,-4.7375,-4.7413,-4.7439,-4.7562,-4.7629,-4.7625,-4.7643,-4.772,-4.7792,-4.7789,-4.7822,-4.7887,-4.7873,-4.7594,-4.7554,-4.7517,-4.7481,-4.7895,-4.7895,-4.8164,-4.8167,-4.8169]},{"header":{"parameterUnit":"m.s-1","parameterCategory":1,"la1":30.2991,"la2":30.254,"lo1":-89.0895,"lo2":-89.0444,"dy":0.0017,"dx":0.0017,"nx":28,"ny":28,"refTime":"2024-10-19T03:00:00:Z","depth":0,"parameterNumber":3,"parameterNumberName":"V-component_of_WINDS"},"data":[0,0,0,0,0,0,0,0,0,0,0,0,0,0,0,0,0,0,0,0,0,0,0,0,0,0,0,0,0,0,0,0,0,0,0,0,0,0,0,0,0,0,0,0,0,0,0,0,0,0,0,0,0,0,0,0,0,0,-3.5293,-3.5293,0,-3.5302,-3.5302,-3.5302,-3.5259,-3.5257,-3.5256,-3.5255,-3.5263,-3.5264,-3.5266,0,0,0,0,0,0,0,0,0,0,0,0,0,-3.5236,-3.5237,-3.5293,-3.5293,-3.5293,-3.5302,-3.5302,-3.5302,-3.5259,-3.5257,-3.5256,-3.5254,-3.5263,-3.5264,-3.5266,0,0,0,0,0,0,0,0,0,0,0,0,0,-3.5254,-3.5238,-3.5293,-3.5273,-3.5271,-3.5302,-3.5302,-3.5302,-3.5259,-3.5257,-3.5255,-3.5254,-3.5262,-3.5264,-3.5266,-3.5317,0,0,-3.5273,-3.5273,0,0,0,0,0,0,0,0,-3.5253,-3.5256,-3.5276,-3.5274,-3.5272,-3.5277,-3.5285,-3.5307,-3.526,-3.5264,-3.5255,-3.5253,-3.5269,-3.5271,-3.5276,-3.5317,-3.5318,-3.5273,-3.5274,-3.5275,-3.5275,0,0,0,0,0,0,0,-3.5252,-3.5256,-3.5296,-3.5276,-3.5274,-3.5262,-3.5263,-3.5289,-3.5277,-3.5263,-3.526,-3.5262,-3.5268,-3.5275,-3.5276,-3.5318,-3.5273,-3.5275,-3.5276,-3.5277,-3.5397,-3.5399,0,0,0,0,0,0,-3.5254,-3.5255,-3.5296,-3.5297,-3.5258,-3.5265,-3.5265,-3.5277,-3.5276,-3.5274,-3.5263,-3.526,-3.5272,-3.5274,-3.5276,-3.5333,-3.5275,-3.5277,-3.5278,-3.5395,-3.5398,-3.54,0,0,0,0,0,0,-3.5253,-3.5258,-3.5296,-3.5275,-3.5279,-3.5268,-3.5282,-3.5279,-3.5285,-3.5277,-3.5274,-3.5272,-3.527,-3.5273,-3.5306,-3.5333,-3.5278,-3.528,-3.5393,-3.5396,-3.5399,-3.5449,0,0,0,0,0,0,-3.5251,-3.5258,-3.5278,-3.5276,-3.528,-3.5327,-3.5283,-3.528,-3.5289,-3.5284,-3.5284,-3.5283,-3.5269,-3.5304,-3.5308,-3.5335,-3.5281,-3.539,-3.5394,-3.5398,-3.5445,-3.5453,-3.546,0,0,0,0,0,-3.5249,-3.5292,-3.5279,-3.5284,-3.5305,-3.5328,-3.5331,-3.5315,-3.5291,-3.531,-3.5305,-3.5283,-3.533,-3.5307,-3.5313,-3.534,-3.5389,-3.5393,-3.5397,-3.5441,-3.5452,-3.546,0,0,0,0,0,0,-3.5298,-3.5292,-3.5277,-3.5321,-3.5325,-3.5321,-3.5345,-3.5327,-3.5338,-3.5333,-3.5312,-3.5313,-3.5349,-3.5348,-3.5323,-3.5387,-3.5355,-3.5361,-3.5386,-3.5396,-3.5404,-3.5402,-3.5283,0,0,0,0,0,-3.5314,-3.5334,-3.5327,-3.5366,-3.5369,-3.5357,-3.5366,-3.5353,-3.5357,-3.5359,-3.5356,-3.536,-3.5375,-3.5386,-3.54,-3.5445,-3.5443,-3.5466,-3.5474,-3.548,-3.5485,-3.5506,-3.5515,-3.5414,-3.5414,-3.5414,0,0,-3.5346,-3.5345,-3.5359,-3.5375,-3.5378,-3.5397,-3.5359,-3.5382,-3.5396,-3.5362,-3.5393,-3.539,-3.5394,-3.5432,-3.5449,-3.5432,-3.5512,-3.5486,-3.5491,-3.5492,-3.5511,-3.5521,-3.5529,-3.5417,-3.5416,-3.5416,0,0,-3.5416,-3.5418,-3.5449,-3.5452,-3.5455,-3.5446,-3.5454,-3.5452,-3.5449,-3.5479,-3.5453,-3.5469,-3.5497,-3.5499,-3.5504,-3.5572,-3.5551,-3.5577,-3.5618,-3.5638,-3.5646,-3.5653,-3.5675,-3.5683,-3.5582,-3.5583,-3.5583,0,-3.5456,-3.5485,-3.5468,-3.5492,-3.5498,-3.5469,-3.5499,-3.5502,-3.551,-3.5515,-3.5497,-3.5529,-3.5529,-3.5566,-3.5583,-3.5589,-3.5595,-3.5577,-3.5646,-3.5653,-3.5659,-3.568,-3.5688,-3.5585,-3.5585,-3.5585,-3.5585,0,-3.5533,-3.5554,-3.5578,-3.5585,-3.5595,-3.5623,-3.5608,-3.562,-3.5606,-3.5598,-3.5628,-3.5627,-3.5639,-3.5647,-3.5634,-3.5682,-3.5671,-3.565,-3.5617,-3.5672,-3.5691,-3.5699,-3.559,-3.5589,-3.5588,-3.5587,0,0,-3.5634,-3.5629,-3.5638,-3.564,-3.5641,-3.5656,-3.5681,-3.5692,-3.5701,-3.5708,-3.5727,-3.575,-3.573,-3.5735,-3.5722,-3.574,-3.5791,-3.5717,-3.5716,-3.5728,-3.584,-3.5855,-3.5864,-3.5778,-3.5779,-3.578,-3.5839,0,-3.5699,-3.5742,-3.5725,-3.5769,-3.5786,-3.5757,-3.5778,-3.578,-3.5774,-3.5787,-3.578,-3.5795,-3.5769,-3.5771,-3.5789,-3.5781,-3.5813,-3.5777,-3.5793,-3.5794,-3.5792,-3.5874,-3.589,-3.5946,-3.5847,-3.5848,-3.5849,0,-3.5782,-3.579,-3.5835,-3.583,-3.5836,-3.5856,-3.5863,-3.5877,-3.5878,-3.5872,-3.5877,-3.5859,-3.5882,-3.585,-3.5879,-3.5855,-3.5861,-3.5859,-3.586,-3.586,-3.5824,-3.5874,-3.5964,-3.5971,-3.5861,-3.586,-3.5859,0,-3.5848,-3.587,-3.5899,-3.5901,-3.5897,-3.5911,-3.591,-3.5909,-3.5916,-3.5922,-3.5926,-3.5936,-3.5941,-3.5948,-3.5932,-3.5911,-3.5964,-3.5931,-3.5957,-3.5958,-3.5969,-3.5968,-3.6058,-3.5976,-3.5976,-3.5976,-3.5976,0,-3.5922,-3.595,-3.5928,-3.5945,-3.5975,-3.5955,-3.5985,-3.5981,-3.598,-3.5995,-3.5971,-3.5986,-3.5965,-3.5977,-3.5966,-3.5991,-3.5994,-3.5988,-3.5984,-3.5989,-3.5989,-3.5991,-3.5986,-3.5978,-3.5977,-3.5977,-3.5977,0,-3.6,-3.5986,-3.6015,-3.6008,-3.6007,-3.6029,-3.6022,-3.6037,-3.6028,-3.6048,-3.6051,-3.6038,-3.6051,-3.6036,-3.6049,-3.604,-3.6073,-3.6065,-3.6073,-3.607,-3.6096,-3.6093,-3.619,-3.62,-3.6113,-3.6114,-3.6115,0,-3.6047,-3.6067,-3.6061,-3.607,-3.6069,-3.6083,-3.609,-3.6071,-3.6079,-3.608,-3.6094,-3.6105,-3.6113,-3.6135,-3.6126,-3.6134,-3.6125,-3.6158,-3.6126,-3.6129,-3.6122,-3.612,-3.6121,-3.6164,-3.6165,-3.6166,-3.6166,0,-3.6131,-3.6123,-3.6133,-3.614,-3.6148,-3.6153,-3.6157,-3.6165,-3.6145,-3.6154,-3.6167,-3.6173,-3.6184,-3.6195,-3.62,-3.6198,-3.6178,-3.6177,-3.6183,-3.6187,-3.619,-3.6186,-3.6088,-3.6174,-3.6173,-3.6173,-3.6172,-3.6172,-3.6193,-3.6209,-3.6206,-3.6218,-3.6218,-3.6221,-3.6234,-3.6226,-3.6236,-3.6244,-3.6232,-3.6247,-3.6246,-3.6251,-3.6251,-3.6262,-3.6248,-3.6257,-3.6259,-3.6261,-3.6264,-3.619,-3.6263,-3.6263,-3.6263,-3.6263,-3.6262,0,-3.6274,-3.6271,-3.6281,-3.6285,-3.6294,-3.6275,-3.6276,-3.6285,-3.6298,-3.6298,-3.6305,-3.6319,-3.6328,-3.6319,-3.6327,-3.6337,-3.6328,-3.6339,-3.6337,-3.6337,-3.6278,-3.6271,-3.6346,-3.6346,-3.6346,-3.6346,-3.6346,-3.6346,-3.6317,-3.6341,-3.6333,-3.6356,-3.6352,-3.6366,-3.6369,-3.6371,-3.637,-3.6386,-3.6393,-3.6387,-3.6383,-3.639,-3.6397,-3.6394,-3.6397,-3.6411,-3.6405,-3.6349,-3.6341,-3.6333,-3.6326,-3.6412,-3.6412,-3.6462,-3.6462,-3.6463]}]]